Starlink 35900

operational
NORAD ID: 66886 Int'l Des: 2025-283 Owner: SPXS Country: US Constellation: starlink
LEOCIRCULAR

Starlink 35900について

説明を読み込み中...

リアルタイム位置

3D地球を読み込み中...

次回通過

高度履歴

Altitude vs Time

uPlot chart will show altitude changes over time

軌道要素

1 66886U 25283J 25347.58336806 -.01280627 48271-3 -36441-2 0 9997
2 66886 53.1554 69.6608 0000868 59.4462 312.1077 15.92679532 2569
Epoch: Dec 13, 2025 • Age: 20 hours

現在のステータス

高度 306.3 km
速度 7.73 km/s
衛星直下点 53.30°N, 74.91°W
打ち上げ日 Dec 4, 2025
運用期間 9 days
タイプ internet

技術仕様

分類 Payload
質量 575.00 kg
乾燥質量 530.00 kg
総質量 575.00 kg
長さ 0.30 m
直径 4.10 m
スパン 29.00 m
形状 Box + pan
製造者 SPXS
バスタイプ Starlink V2MO
フェーズステータス In Orbit
所有者/国 SPXS/US

大規模コンステレーション

Loading constellations...